Tracking 25710 objects as of 7-Jul-2022
HD Live streaming from Space Station
objects crossing your sky now

FENGYUN 1C DEB

Track FENGYUN 1C DEB now!
10-day predictions


NORAD ID: 30442
Int'l Code: 1999-025AFD
Perigee: 808.8 km
Apogee: 903.4 km
Inclination: 98.9 °
Period: 101.9 minutes
Semi major axis: 7227 km
RCS: 0.0217 m2 (small)
Launch date: May 10, 1999
Source: People's Republic of China (PRC)
Launch site: Taiyaun Space Center, China (TSC)

Note: This is SATELLITE DEBRIS
aabbcc
Your satellite tracking list
Your tracking list is empty




NASA's NSSDC Master Catalog

Two Line Element Set (TLE):
1 30442U 99025AFD 22187.12982325  .00001429  00000-0  77401-3 0  9998
2 30442  98.9127 260.6863 0065436 283.8851  75.5048 14.13040652793487
Source of the keplerian elements: AFSPC